Voltar ao catálogo

STARLINK-6239

AtivoComunicaçõesVLEO
NORAD 56423·PAYLOAD·🇺🇸 United States

Lançado May 4, 2023 de Cape Canaveral Space Force Station

Loading…

Próximas Passagens (próximas 24 horas)

TLE

AtualizadoSource: CelesTrak SupGP

Época: Sep 14, 2026, 22:21 UTC

1 56423C 23061BB  26257.93173611 -.00024974  00000+0 -90466-3 0  2577
2 56423  43.0036 190.8227 0001429 264.4100  29.7479 15.27586375    18

Acompanhe STARLINK-6239 em tempo real com AllMySat

Download on the App Store